Time,TemperatureF,DewpointF,PressureIn,WindDirection,WindDirectionDegrees,WindSpeedMPH,WindSpeedGustMPH,Humidity,HourlyPrecipIn,Conditions,Clouds,dailyrainin,SoftwareType,DateUTC
2013-02-07 00:00:00,21.3,12.7,30.29,SE,129,0.0,1.0,69,0.00,,,0.00,Wunderground v.1.15,2013-02-07 05:00:00,
2013-02-07 00:01:00,21.3,12.4,30.29,East,84,0.0,1.0,68,0.00,,,0.00,Wunderground v.1.15,2013-02-07 05:01:00,
2013-02-07 00:06:00,21.4,12.5,30.29,SE,146,0.0,1.0,68,0.00,,,0.00,Wunderground v.1.15,2013-02-07 05:06:00,
2013-02-07 00:09:00,21.4,12.5,30.29,SE,124,0.0,1.0,68,0.00,,,0.00,Wunderground v.1.15,2013-02-07 05:09:00,
2013-02-07 00:14:00,21.5,12.6,30.29,East,83,0.0,1.0,68,0.00,,,0.00,Wunderground v.1.15,2013-02-07 05:14:00,
2013-02-07 00:15:00,21.5,12.3,30.29,SE,135,0.0,4.0,67,0.00,,---,0.00,VWS V14.01,2013-02-07 05:15:00,
2013-02-07 00:19:00,21.7,12.4,30.29,ESE,120,1.0,1.0,67,0.00,,,0.00,Wunderground v.1.15,2013-02-07 05:19:00,
2013-02-07 00:25:00,21.8,12.5,30.29,ESE,122,0.0,1.0,67,0.00,,,0.00,Wunderground v.1.15,2013-02-07 05:25:00,
2013-02-07 00:30:00,21.8,12.5,30.30,SE,135,0.0,3.0,67,0.00,,---,0.00,VWS V14.01,2013-02-07 05:30:00,
2013-02-07 00:31:00,21.8,12.5,30.30,SE,131,0.0,1.0,67,0.00,,,0.00,Wunderground v.1.15,2013-02-07 05:31:00,
2013-02-07 00:36:00,21.6,12.3,30.29,SSE,150,0.0,1.0,67,0.00,,,0.00,Wunderground v.1.15,2013-02-07 05:36:00,
2013-02-07 00:42:00,21.7,12.4,30.30,East,96,1.0,3.0,67,0.00,,,0.00,Wunderground v.1.15,2013-02-07 05:42:00,
2013-02-07 00:45:00,21.8,12.5,30.30,SE,135,1.0,5.0,67,0.00,,---,0.00,VWS V14.01,2013-02-07 05:45:00,
2013-02-07 00:47:00,21.9,12.6,30.30,ESE,115,1.0,3.0,67,0.00,,,0.00,Wunderground v.1.15,2013-02-07 05:47:00,
2013-02-07 00:53:00,21.7,12.4,30.31,SE,128,1.0,2.0,67,0.00,,,0.00,Wunderground v.1.15,2013-02-07 05:53:00,
2013-02-07 00:58:00,21.7,12.4,30.31,SSE,150,1.0,2.0,67,0.00,,,0.00,Wunderground v.1.15,2013-02-07 05:58:00,
2013-02-07 01:00:00,21.8,12.5,30.31,SE,135,1.0,5.0,67,0.00,,---,0.00,VWS V14.01,2013-02-07 06:00:00,
2013-02-07 01:04:00,21.8,12.5,30.31,SSE,151,1.0,3.0,67,0.00,,,0.00,Wunderground v.1.15,2013-02-07 06:04:00,
2013-02-07 01:09:00,21.9,12.6,30.31,ESE,116,1.0,1.0,67,0.00,,,0.00,Wunderground v.1.15,2013-02-07 06:09:00,
2013-02-07 01:15:00,22.1,12.8,30.31,SE,145,1.0,2.0,67,0.00,,,0.00,Wunderground v.1.15,2013-02-07 06:15:00,
2013-02-07 01:20:00,22.2,12.9,30.32,ESE,121,2.0,2.0,67,0.00,,,0.00,Wunderground v.1.15,2013-02-07 06:20:00,
2013-02-07 01:25:00,22.3,13.0,30.31,SE,126,1.0,2.0,67,0.00,,,0.00,Wunderground v.1.15,2013-02-07 06:25:00,
2013-02-07 01:30:00,22.4,13.1,30.32,SE,135,1.0,5.0,67,0.00,,---,0.00,VWS V14.01,2013-02-07 06:30:00,
2013-02-07 01:31:00,22.5,13.2,30.32,SE,139,1.0,2.0,67,0.00,,,0.00,Wunderground v.1.15,2013-02-07 06:31:00,
2013-02-07 01:36:00,22.6,13.3,30.32,SE,124,0.0,2.0,67,0.00,,,0.00,Wunderground v.1.15,2013-02-07 06:36:00,
2013-02-07 01:42:00,22.7,13.4,30.32,SE,133,0.0,1.0,67,0.00,,,0.00,Wunderground v.1.15,2013-02-07 06:42:00,
2013-02-07 01:45:00,22.8,13.5,30.32,SE,135,0.0,2.0,67,0.00,,---,0.00,VWS V14.01,2013-02-07 06:45:00,
2013-02-07 01:47:00,22.9,13.6,30.33,SE,140,0.0,1.0,67,0.00,,,0.00,Wunderground v.1.15,2013-02-07 06:47:00,
2013-02-07 01:52:00,23.1,13.8,30.33,East,86,1.0,1.0,67,0.00,,,0.00,Wunderground v.1.15,2013-02-07 06:52:00,
2013-02-07 01:57:00,23.2,13.9,30.33,ESE,113,0.0,1.0,67,0.00,,,0.00,Wunderground v.1.15,2013-02-07 06:57:00,
2013-02-07 02:00:00,23.4,14.1,30.33,SE,135,0.0,2.0,67,0.00,,---,0.00,VWS V14.01,2013-02-07 07:00:00,
2013-02-07 02:03:00,23.5,13.8,30.33,ESE,112,0.0,1.0,66,0.00,,,0.00,Wunderground v.1.15,2013-02-07 07:03:00,
2013-02-07 02:08:00,23.7,14.0,30.33,ESE,110,0.0,1.0,66,0.00,,,0.00,Wunderground v.1.15,2013-02-07 07:08:00,
2013-02-07 02:13:00,23.9,14.2,30.33,SE,137,0.0,2.0,66,0.00,,,0.00,Wunderground v.1.15,2013-02-07 07:13:00,
2013-02-07 02:15:00,24.0,14.3,30.33,SE,135,1.0,4.0,66,0.00,,---,0.00,VWS V14.01,2013-02-07 07:15:00,
2013-02-07 02:19:00,24.0,14.6,30.33,SSE,153,1.0,3.0,67,0.00,,,0.00,Wunderground v.1.15,2013-02-07 07:19:00,
2013-02-07 02:24:00,24.2,14.5,30.33,ESE,122,0.0,1.0,66,0.00,,,0.00,Wunderground v.1.15,2013-02-07 07:24:00,
2013-02-07 02:29:00,24.2,14.8,30.33,SSE,149,0.0,0.0,67,0.00,,,0.00,Wunderground v.1.15,2013-02-07 07:29:00,
2013-02-07 02:30:00,24.3,14.9,30.33,SE,135,0.0,2.0,67,0.00,,---,0.00,VWS V14.01,2013-02-07 07:30:00,
2013-02-07 02:35:00,24.5,14.8,30.33,SE,146,0.0,2.0,66,0.00,,,0.00,Wunderground v.1.15,2013-02-07 07:35:00,
2013-02-07 02:40:00,24.7,14.9,30.33,SSE,151,1.0,1.0,66,0.00,,,0.00,Wunderground v.1.15,2013-02-07 07:40:00,
2013-02-07 02:45:00,24.8,15.0,30.33,SE,134,1.0,1.0,66,0.00,,,0.00,Wunderground v.1.15,2013-02-07 07:45:00,
2013-02-07 02:51:00,24.9,14.8,30.33,SSW,192,0.0,1.0,65,0.00,,,0.00,Wunderground v.1.15,2013-02-07 07:51:00,
2013-02-07 02:56:00,24.9,14.4,30.33,SSE,163,0.0,2.0,64,0.00,,,0.00,Wunderground v.1.15,2013-02-07 07:56:00,
2013-02-07 03:00:00,25.0,14.2,30.33,SE,135,1.0,5.0,63,0.00,,---,0.00,VWS V14.01,2013-02-07 08:00:00,
2013-02-07 03:02:00,25.0,14.5,30.32,SE,143,1.0,4.0,64,0.00,,,0.00,Wunderground v.1.15,2013-02-07 08:02:00,
2013-02-07 03:07:00,25.1,14.3,30.32,SE,125,1.0,4.0,63,0.00,,,0.00,Wunderground v.1.15,2013-02-07 08:07:00,
2013-02-07 03:12:00,25.2,14.4,30.32,East,86,1.0,1.0,63,0.00,,,0.00,Wunderground v.1.15,2013-02-07 08:12:00,
2013-02-07 03:15:00,25.2,14.8,30.32,SE,135,1.0,4.0,64,0.00,,---,0.00,VWS V14.01,2013-02-07 08:15:00,
2013-02-07 03:18:00,25.3,14.8,30.32,SE,134,0.0,1.0,64,0.00,,,0.00,Wunderground v.1.15,2013-02-07 08:18:00,
2013-02-07 03:24:00,25.4,14.5,30.31,SE,135,1.0,2.0,63,0.00,,,0.00,Wunderground v.1.15,2013-02-07 08:24:00,
2013-02-07 03:29:00,25.7,14.8,30.31,SE,137,1.0,5.0,63,0.00,,,0.00,Wunderground v.1.15,2013-02-07 08:29:00,
2013-02-07 03:30:00,25.7,14.9,30.31,SE,135,1.0,7.0,63,0.00,,---,0.00,VWS V14.01,2013-02-07 08:30:00,
2013-02-07 03:34:00,25.8,14.9,30.31,East,98,1.0,2.0,63,0.00,,,0.00,Wunderground v.1.15,2013-02-07 08:34:00,
2013-02-07 03:40:00,25.9,15.0,30.31,SE,131,0.0,1.0,63,0.00,,,0.00,Wunderground v.1.15,2013-02-07 08:40:00,
2013-02-07 03:45:00,25.9,15.0,30.31,East,96,1.0,4.0,63,0.00,,,0.00,Wunderground v.1.15,2013-02-07 08:45:00,
2013-02-07 03:50:00,25.9,14.7,30.30,East,85,1.0,2.0,62,0.00,,,0.00,Wunderground v.1.15,2013-02-07 08:50:00,
2013-02-07 03:56:00,26.0,14.8,30.31,East,85,1.0,2.0,62,0.00,,,0.00,Wunderground v.1.15,2013-02-07 08:56:00,
2013-02-07 04:00:00,26.0,14.8,30.31,SE,135,1.0,4.0,62,0.00,,---,0.00,VWS V14.01,2013-02-07 09:00:00,
2013-02-07 04:03:00,26.0,14.8,30.31,ESE,117,1.0,3.0,62,0.00,,,0.00,Wunderground v.1.15,2013-02-07 09:03:00,
2013-02-07 04:09:00,26.0,14.8,30.31,SE,146,0.0,3.0,62,0.00,,,0.00,Wunderground v.1.15,2013-02-07 09:09:00,
2013-02-07 04:14:00,25.9,15.0,30.31,ENE,59,1.0,1.0,63,0.00,,,0.00,Wunderground v.1.15,2013-02-07 09:14:00,
2013-02-07 04:15:00,25.9,15.1,30.31,SE,135,0.0,3.0,63,0.00,,---,0.00,VWS V14.01,2013-02-07 09:15:00,
2013-02-07 04:19:00,25.9,15.0,30.31,East,86,1.0,1.0,63,0.00,,,0.00,Wunderground v.1.15,2013-02-07 09:19:00,
2013-02-07 04:25:00,26.0,15.1,30.31,SSE,160,0.0,2.0,63,0.00,,,0.00,Wunderground v.1.15,2013-02-07 09:25:00,
2013-02-07 04:30:00,25.9,15.4,30.32,SE,143,1.0,2.0,64,0.00,,,0.00,Wunderground v.1.15,2013-02-07 09:30:00,
2013-02-07 04:35:00,25.9,15.4,30.32,SE,134,0.0,2.0,64,0.00,,,0.00,Wunderground v.1.15,2013-02-07 09:35:00,
2013-02-07 04:41:00,25.8,15.3,30.32,SE,135,0.0,0.0,64,0.00,,,0.00,Wunderground v.1.15,2013-02-07 09:41:00,
2013-02-07 04:45:00,25.8,15.3,30.32,SE,135,1.0,6.0,64,0.00,,---,0.00,VWS V14.01,2013-02-07 09:45:00,
2013-02-07 04:46:00,25.8,15.3,30.32,ESE,117,1.0,2.0,64,0.00,,,0.00,Wunderground v.1.15,2013-02-07 09:46:00,
2013-02-07 04:52:00,25.8,15.3,30.32,SE,141,1.0,2.0,64,0.00,,,0.00,Wunderground v.1.15,2013-02-07 09:52:00,
2013-02-07 04:57:00,25.8,15.3,30.32,SE,128,1.0,2.0,64,0.00,,,0.00,Wunderground v.1.15,2013-02-07 09:57:00,
2013-02-07 05:00:00,25.8,15.7,30.32,SE,135,1.0,4.0,65,0.00,,---,0.00,VWS V14.01,2013-02-07 10:00:00,
2013-02-07 05:03:00,25.9,15.4,30.31,SE,134,1.0,1.0,64,0.00,,,0.00,Wunderground v.1.15,2013-02-07 10:03:00,
2013-02-07 05:09:00,25.9,15.4,30.31,East,79,1.0,3.0,64,0.00,,,0.00,Wunderground v.1.15,2013-02-07 10:09:00,
2013-02-07 05:14:00,26.0,15.5,30.31,ENE,73,0.0,1.0,64,0.00,,,0.00,Wunderground v.1.15,2013-02-07 10:14:00,
2013-02-07 05:15:00,26.0,15.5,30.31,SE,135,0.0,5.0,64,0.00,,---,0.00,VWS V14.01,2013-02-07 10:15:00,
2013-02-07 05:19:00,25.9,15.4,30.31,SE,127,0.0,0.0,64,0.00,,,0.00,Wunderground v.1.15,2013-02-07 10:19:00,
2013-02-07 05:25:00,25.8,15.6,30.31,East,101,0.0,1.0,65,0.00,,,0.00,Wunderground v.1.15,2013-02-07 10:25:00,
2013-02-07 05:30:00,25.8,15.6,30.31,ENE,78,0.0,0.0,65,0.00,,,0.00,Wunderground v.1.15,2013-02-07 10:30:00,
2013-02-07 05:35:00,25.8,15.6,30.31,East,86,1.0,3.0,65,0.00,,,0.00,Wunderground v.1.15,2013-02-07 10:35:00,
2013-02-07 05:41:00,25.8,15.6,30.31,East,97,1.0,1.0,65,0.00,,,0.00,Wunderground v.1.15,2013-02-07 10:41:00,
2013-02-07 05:45:00,25.8,15.7,30.31,ENE,68,1.0,3.0,65,0.00,,---,0.00,VWS V14.01,2013-02-07 10:45:00,
2013-02-07 05:46:00,25.8,15.6,30.31,SSE,148,1.0,2.0,65,0.00,,,0.00,Wunderground v.1.15,2013-02-07 10:46:00,
2013-02-07 05:52:00,25.8,15.3,30.31,SE,124,1.0,2.0,64,0.00,,,0.00,Wunderground v.1.15,2013-02-07 10:52:00,
2013-02-07 05:57:00,25.8,15.3,30.31,SSE,152,1.0,2.0,64,0.00,,,0.00,Wunderground v.1.15,2013-02-07 10:57:00,
2013-02-07 06:00:00,25.8,15.7,30.31,SE,135,1.0,4.0,65,0.00,,---,0.00,VWS V14.01,2013-02-07 11:00:00,
2013-02-07 06:02:00,25.8,15.6,30.31,ESE,118,0.0,2.0,65,0.00,,,0.00,Wunderground v.1.15,2013-02-07 11:02:00,
2013-02-07 06:08:00,25.8,15.6,30.31,East,82,1.0,2.0,65,0.00,,,0.00,Wunderground v.1.15,2013-02-07 11:08:00,
2013-02-07 06:14:00,25.8,15.6,30.31,East,91,1.0,2.0,65,0.00,,,0.00,Wunderground v.1.15,2013-02-07 11:14:00,
2013-02-07 06:15:00,25.8,15.3,30.31,ENE,68,1.0,5.0,64,0.00,,---,0.00,VWS V14.01,2013-02-07 11:15:00,
2013-02-07 06:19:00,25.7,15.6,30.30,ENE,70,1.0,1.0,65,0.00,,,0.00,Wunderground v.1.15,2013-02-07 11:19:00,
2013-02-07 06:24:00,25.7,15.2,30.31,SE,144,1.0,2.0,64,0.00,,,0.00,Wunderground v.1.15,2013-02-07 11:24:00,
2013-02-07 06:30:00,25.7,15.2,30.31,SE,134,1.0,1.0,64,0.00,,,0.00,Wunderground v.1.15,2013-02-07 11:30:00,
2013-02-07 06:35:00,25.7,15.6,30.31,SE,133,1.0,3.0,65,0.00,,,0.00,Wunderground v.1.15,2013-02-07 11:35:00,
2013-02-07 06:41:00,25.7,15.6,30.31,ENE,72,1.0,1.0,65,0.00,,,0.00,Wunderground v.1.15,2013-02-07 11:41:00,
2013-02-07 06:45:00,25.8,15.7,30.31,SE,135,1.0,6.0,65,0.00,,---,0.00,VWS V14.01,2013-02-07 11:45:00,
2013-02-07 06:46:00,25.8,15.6,30.31,East,100,1.0,3.0,65,0.00,,,0.00,Wunderground v.1.15,2013-02-07 11:46:00,
2013-02-07 06:52:00,25.8,16.0,30.31,SE,136,1.0,4.0,66,0.00,,,0.00,Wunderground v.1.15,2013-02-07 11:52:00,
2013-02-07 06:58:00,25.9,15.7,30.30,SE,124,2.0,4.0,65,0.00,,,0.00,Wunderground v.1.15,2013-02-07 11:58:00,
2013-02-07 07:00:00,25.9,15.8,30.30,SE,135,1.0,7.0,65,0.00,,---,0.00,VWS V14.01,2013-02-07 12:00:00,
2013-02-07 07:03:00,25.9,15.7,30.30,ESE,122,2.0,3.0,65,0.00,,,0.00,Wunderground v.1.15,2013-02-07 12:03:00,
2013-02-07 07:09:00,25.9,15.7,30.29,SSE,158,2.0,4.0,65,0.00,,,0.00,Wunderground v.1.15,2013-02-07 12:09:00,
2013-02-07 07:14:00,25.9,15.4,30.29,East,92,2.0,7.0,64,0.00,,,0.00,Wunderground v.1.15,2013-02-07 12:14:00,
2013-02-07 07:15:00,25.9,15.4,30.29,SE,135,2.0,8.0,64,0.00,,---,0.00,VWS V14.01,2013-02-07 12:15:00,
2013-02-07 07:19:00,25.9,15.4,30.29,SSE,150,3.0,3.0,64,0.00,,,0.00,Wunderground v.1.15,2013-02-07 12:19:00,
2013-02-07 07:25:00,26.0,15.8,30.28,SE,145,2.0,9.0,65,0.00,,,0.00,Wunderground v.1.15,2013-02-07 12:25:00,
2013-02-07 07:30:00,26.0,16.2,30.28,ESE,117,1.0,4.0,66,0.00,,,0.00,Wunderground v.1.15,2013-02-07 12:30:00,
2013-02-07 07:36:00,26.1,15.9,30.28,ESE,122,2.0,5.0,65,0.00,,,0.00,Wunderground v.1.15,2013-02-07 12:36:00,
2013-02-07 07:41:00,26.3,16.1,30.28,ESE,122,3.0,3.0,65,0.00,,,0.00,Wunderground v.1.15,2013-02-07 12:41:00,
2013-02-07 07:45:00,26.3,16.1,30.29,SE,135,2.0,9.0,65,0.00,,---,0.00,VWS V14.01,2013-02-07 12:45:00,
2013-02-07 07:46:00,26.3,16.1,30.29,SSE,158,2.0,3.0,65,0.00,,,0.00,Wunderground v.1.15,2013-02-07 12:46:00,
2013-02-07 07:52:00,26.4,16.2,30.28,ESE,117,2.0,7.0,65,0.00,,,0.00,Wunderground v.1.15,2013-02-07 12:52:00,
2013-02-07 07:57:00,26.5,16.0,30.28,SE,138,3.0,7.0,64,0.00,,,0.00,Wunderground v.1.15,2013-02-07 12:57:00,
2013-02-07 08:00:00,26.5,16.0,30.29,SE,135,3.0,8.0,64,0.00,,---,0.00,VWS V14.01,2013-02-07 13:00:00,
2013-02-07 08:02:00,26.5,16.3,30.28,SE,145,3.0,4.0,65,0.00,,,0.00,Wunderground v.1.15,2013-02-07 13:02:00,
2013-02-07 08:08:00,26.6,16.1,30.28,SSE,160,2.0,7.0,64,0.00,,,0.00,Wunderground v.1.15,2013-02-07 13:08:00,
2013-02-07 08:13:00,26.6,16.4,30.28,SE,139,2.0,3.0,65,0.00,,,0.00,Wunderground v.1.15,2013-02-07 13:13:00,
2013-02-07 08:15:00,26.7,16.2,30.28,SE,135,2.0,7.0,64,0.00,,---,0.00,VWS V14.01,2013-02-07 13:15:00,
2013-02-07 08:19:00,26.8,16.2,30.29,SSE,152,2.0,3.0,64,0.00,,,0.00,Wunderground v.1.15,2013-02-07 13:19:00,
2013-02-07 08:24:00,26.9,16.7,30.29,ENE,58,1.0,2.0,65,0.00,,,0.00,Wunderground v.1.15,2013-02-07 13:24:00,
2013-02-07 08:30:00,27.1,16.9,30.29,ENE,73,1.0,1.0,65,0.00,,,0.00,Wunderground v.1.15,2013-02-07 13:30:00,
2013-02-07 08:35:00,27.3,16.7,30.29,ESE,118,0.0,1.0,64,0.00,,,0.00,Wunderground v.1.15,2013-02-07 13:35:00,
2013-02-07 08:40:00,27.5,17.3,30.29,ENE,60,0.0,1.0,65,0.00,,,0.00,Wunderground v.1.15,2013-02-07 13:40:00,
2013-02-07 08:45:00,27.6,17.0,30.29,SE,135,0.0,4.0,64,0.00,,---,0.00,VWS V14.01,2013-02-07 13:45:00,
2013-02-07 08:46:00,27.6,17.4,30.29,SE,138,1.0,1.0,65,0.00,,,0.00,Wunderground v.1.15,2013-02-07 13:46:00,
2013-02-07 08:51:00,27.8,17.6,30.29,SSW,198,1.0,2.0,65,0.00,,,0.00,Wunderground v.1.15,2013-02-07 13:51:00,
2013-02-07 08:57:00,27.9,17.6,30.29,ENE,70,1.0,4.0,65,0.00,,,0.00,Wunderground v.1.15,2013-02-07 13:57:00,
2013-02-07 09:00:00,28.0,17.4,30.29,SE,135,1.0,5.0,64,0.00,,---,0.00,VWS V14.01,2013-02-07 14:00:00,
2013-02-07 09:02:00,28.0,17.4,30.28,SSW,192,1.0,2.0,64,0.00,,,0.00,Wunderground v.1.15,2013-02-07 14:02:00,
2013-02-07 09:07:00,28.0,17.7,30.28,East,82,2.0,3.0,65,0.00,,,0.00,Wunderground v.1.15,2013-02-07 14:07:00,
2013-02-07 09:13:00,28.2,17.6,30.28,East,89,2.0,3.0,64,0.00,,,0.00,Wunderground v.1.15,2013-02-07 14:13:00,
2013-02-07 09:15:00,28.2,17.6,30.28,SE,135,2.0,8.0,64,0.00,,---,0.00,VWS V14.01,2013-02-07 14:15:00,
2013-02-07 09:18:00,28.3,17.7,30.27,SE,133,2.0,4.0,64,0.00,,,0.00,Wunderground v.1.15,2013-02-07 14:18:00,
2013-02-07 09:24:00,28.6,18.0,30.27,ESE,120,2.0,4.0,64,0.00,,,0.00,Wunderground v.1.15,2013-02-07 14:24:00,
2013-02-07 09:29:00,29.1,18.4,30.26,ESE,116,2.0,2.0,64,0.00,,,0.00,Wunderground v.1.15,2013-02-07 14:29:00,
2013-02-07 09:30:00,29.2,18.5,30.26,SE,135,2.0,7.0,64,0.00,,---,0.00,VWS V14.01,2013-02-07 14:30:00,
2013-02-07 09:35:00,29.7,18.6,30.25,ENE,72,2.0,8.0,63,0.00,,,0.00,Wunderground v.1.15,2013-02-07 14:35:00,
2013-02-07 09:40:00,30.2,19.1,30.25,SE,144,3.0,3.0,63,0.00,,,0.00,Wunderground v.1.15,2013-02-07 14:40:00,
2013-02-07 09:45:00,30.6,19.1,30.25,SE,135,4.0,5.0,62,0.00,,,0.00,Wunderground v.1.15,2013-02-07 14:45:00,
2013-02-07 09:51:00,31.0,19.5,30.25,ESE,115,3.0,4.0,62,0.00,,,0.00,Wunderground v.1.15,2013-02-07 14:51:00,
2013-02-07 09:56:00,31.3,19.8,30.25,ESE,103,3.0,4.0,62,0.00,,,0.00,Wunderground v.1.15,2013-02-07 14:56:00,
2013-02-07 10:00:00,31.4,19.9,30.25,SE,135,3.0,7.0,62,0.00,,---,0.00,VWS V14.01,2013-02-07 15:00:00,
2013-02-07 10:01:00,31.4,19.9,30.24,ENE,70,3.0,8.0,62,0.00,,,0.00,Wunderground v.1.15,2013-02-07 15:01:00,
2013-02-07 10:06:00,31.7,19.8,30.24,SE,131,2.0,8.0,61,0.00,,,0.00,Wunderground v.1.15,2013-02-07 15:06:00,
2013-02-07 10:12:00,31.8,19.9,30.24,East,80,2.0,4.0,61,0.00,,,0.00,Wunderground v.1.15,2013-02-07 15:12:00,
2013-02-07 10:15:00,31.9,20.0,30.24,SE,135,3.0,12.0,61,0.00,,---,0.00,VWS V14.01,2013-02-07 15:15:00,
2013-02-07 10:17:00,32.1,20.2,30.24,ESE,110,3.0,4.0,61,0.00,,,0.00,Wunderground v.1.15,2013-02-07 15:17:00,
2013-02-07 10:22:00,32.5,20.5,30.24,SE,131,3.0,8.0,61,0.00,,,0.00,Wunderground v.1.15,2013-02-07 15:22:00,
2013-02-07 10:28:00,32.7,20.3,30.24,ESE,120,2.0,8.0,60,0.00,,,0.00,Wunderground v.1.15,2013-02-07 15:28:00,
2013-02-07 10:30:00,32.7,20.8,30.24,SE,135,2.0,11.0,61,0.00,,---,0.00,VWS V14.01,2013-02-07 15:30:00,
2013-02-07 10:33:00,32.4,20.0,30.23,SE,142,2.0,11.0,60,0.00,,,0.00,Wunderground v.1.15,2013-02-07 15:33:00,
2013-02-07 10:39:00,32.1,19.8,30.23,SE,141,4.0,4.0,60,0.00,,,0.00,Wunderground v.1.15,2013-02-07 15:39:00,
2013-02-07 10:44:00,32.3,20.3,30.23,East,99,4.0,4.0,61,0.00,,,0.00,Wunderground v.1.15,2013-02-07 15:44:00,
2013-02-07 10:45:00,32.3,20.4,30.23,SE,135,4.0,11.0,61,0.00,,---,0.00,VWS V14.01,2013-02-07 15:45:00,
2013-02-07 10:49:00,32.5,20.5,30.23,SE,129,4.0,4.0,61,0.00,,,0.00,Wunderground v.1.15,2013-02-07 15:49:00,
2013-02-07 10:55:00,32.9,20.9,30.23,SE,130,4.0,7.0,61,0.00,,,0.00,Wunderground v.1.15,2013-02-07 15:55:00,
2013-02-07 11:00:00,33.1,21.1,30.23,SE,143,3.0,4.0,61,0.00,,,0.00,Wunderground v.1.15,2013-02-07 16:00:00,
2013-02-07 11:06:00,33.5,21.5,30.23,SE,140,3.0,6.0,61,0.00,,,0.00,Wunderground v.1.15,2013-02-07 16:06:00,
2013-02-07 11:11:00,33.9,21.9,30.23,SE,143,2.0,4.0,61,0.00,,,0.00,Wunderground v.1.15,2013-02-07 16:11:00,
2013-02-07 11:15:00,34.1,22.1,30.23,SE,135,2.0,9.0,61,0.00,,---,0.00,VWS V14.01,2013-02-07 16:15:00,
2013-02-07 11:16:00,34.2,21.7,30.23,SE,141,2.0,4.0,60,0.00,,,0.00,Wunderground v.1.15,2013-02-07 16:16:00,
2013-02-07 11:22:00,34.3,22.2,30.23,ESE,115,3.0,4.0,61,0.00,,,0.00,Wunderground v.1.15,2013-02-07 16:22:00,
2013-02-07 11:27:00,34.2,21.7,30.23,SSE,160,3.0,9.0,60,0.00,,,0.00,Wunderground v.1.15,2013-02-07 16:27:00,
2013-02-07 11:30:00,34.2,22.2,30.22,SE,135,3.0,14.0,61,0.00,,---,0.00,VWS V14.01,2013-02-07 16:30:00,
2013-02-07 11:34:00,34.4,22.3,30.22,SW,219,3.0,5.0,61,0.00,,,0.00,Wunderground v.1.15,2013-02-07 16:34:00,
2013-02-07 11:39:00,34.8,22.3,30.22,SE,130,2.0,2.0,60,0.00,,,0.00,Wunderground v.1.15,2013-02-07 16:39:00,
2013-02-07 11:45:00,35.2,22.7,30.22,SE,126,2.0,3.0,60,0.00,,,0.00,Wunderground v.1.15,2013-02-07 16:45:00,
2013-02-07 11:50:00,35.3,22.4,30.22,SW,217,2.0,2.0,59,0.00,,,0.00,Wunderground v.1.15,2013-02-07 16:50:00,
2013-02-07 11:55:00,35.4,22.5,30.22,SE,127,2.0,3.0,59,0.00,,,0.00,Wunderground v.1.15,2013-02-07 16:55:00,
2013-02-07 12:00:00,35.6,22.7,30.21,SE,135,2.0,8.0,59,0.00,,---,0.00,VWS V14.01,2013-02-07 17:00:00,
2013-02-07 12:01:00,35.7,22.8,30.21,SE,144,2.0,3.0,59,0.00,,,0.00,Wunderground v.1.15,2013-02-07 17:01:00,
2013-02-07 12:06:00,35.7,21.9,30.21,SSW,203,2.0,3.0,57,0.00,,,0.00,Wunderground v.1.15,2013-02-07 17:06:00,
2013-02-07 12:11:00,35.9,22.5,30.20,East,99,2.0,3.0,58,0.00,,,0.00,Wunderground v.1.15,2013-02-07 17:11:00,
2013-02-07 12:15:00,36.1,22.4,30.19,SE,135,2.0,11.0,57,0.00,,---,0.00,VWS V14.01,2013-02-07 17:15:00,
2013-02-07 12:17:00,36.2,22.4,30.19,SE,124,2.0,5.0,57,0.00,,,0.00,Wunderground v.1.15,2013-02-07 17:17:00,
2013-02-07 12:22:00,36.8,22.1,30.19,SE,126,3.0,5.0,55,0.00,,,0.00,Wunderground v.1.15,2013-02-07 17:22:00,
2013-02-07 12:27:00,37.3,22.6,30.18,ESE,122,2.0,6.0,55,0.00,,,0.00,Wunderground v.1.15,2013-02-07 17:27:00,
2013-02-07 12:30:00,37.7,22.6,30.18,SE,135,2.0,8.0,54,0.00,,---,0.00,VWS V14.01,2013-02-07 17:30:00,
2013-02-07 12:33:00,38.0,22.4,30.18,ENE,69,2.0,3.0,53,0.00,,,0.00,Wunderground v.1.15,2013-02-07 17:33:00,
2013-02-07 12:38:00,38.7,23.0,30.17,SE,141,2.0,3.0,53,0.00,,,0.01,Wunderground v.1.15,2013-02-07 17:38:00,
2013-02-07 12:44:00,39.7,23.0,30.17,ENE,72,2.0,3.0,51,0.00,,,0.01,Wunderground v.1.15,2013-02-07 17:44:00,
2013-02-07 12:45:00,39.7,23.1,30.17,SE,135,2.0,8.0,51,0.00,,---,0.01,VWS V14.01,2013-02-07 17:45:00,
2013-02-07 12:49:00,40.4,23.2,30.17,ESE,108,2.0,2.0,50,0.00,,,0.01,Wunderground v.1.15,2013-02-07 17:49:00,
2013-02-07 12:55:00,40.9,22.2,30.16,SSE,148,1.0,2.0,47,0.00,,,0.01,Wunderground v.1.15,2013-02-07 17:55:00,
2013-02-07 13:00:00,41.2,22.5,30.16,East,81,2.0,2.0,47,0.00,,,0.01,Wunderground v.1.15,2013-02-07 18:00:00,
2013-02-07 13:05:00,41.0,21.3,30.15,SE,136,2.0,8.0,45,0.00,,,0.01,Wunderground v.1.15,2013-02-07 18:05:00,
2013-02-07 13:11:00,41.9,21.5,30.15,SE,131,2.0,2.0,44,0.00,,,0.01,Wunderground v.1.15,2013-02-07 18:11:00,
2013-02-07 13:15:00,42.5,21.0,30.15,SE,135,2.0,10.0,42,0.00,,---,0.01,VWS V14.01,2013-02-07 18:15:00,
2013-02-07 13:16:00,42.7,21.2,30.15,East,86,2.0,10.0,42,0.00,,,0.01,Wunderground v.1.15,2013-02-07 18:16:00,
2013-02-07 13:21:00,43.0,22.5,30.15,SE,139,2.0,2.0,44,0.00,,,0.01,Wunderground v.1.15,2013-02-07 18:21:00,
2013-02-07 13:27:00,43.4,21.8,30.14,SSE,161,2.0,3.0,42,0.00,,,0.01,Wunderground v.1.15,2013-02-07 18:27:00,
2013-02-07 13:30:00,43.5,22.0,30.14,SE,135,2.0,8.0,42,0.00,,---,0.01,VWS V14.01,2013-02-07 18:30:00,
2013-02-07 13:32:00,43.4,21.8,30.14,ESE,121,2.0,7.0,42,0.00,,,0.01,Wunderground v.1.15,2013-02-07 18:32:00,
2013-02-07 13:39:00,43.3,22.3,30.13,SE,136,2.0,7.0,43,0.00,,,0.01,Wunderground v.1.15,2013-02-07 18:39:00,
2013-02-07 13:44:00,43.4,22.9,30.13,SSE,153,2.0,6.0,44,0.00,,,0.01,Wunderground v.1.15,2013-02-07 18:44:00,
2013-02-07 13:45:00,43.5,23.0,30.13,SE,135,2.0,7.0,44,0.00,,---,0.01,VWS V14.01,2013-02-07 18:45:00,
2013-02-07 13:49:00,43.9,23.4,30.12,ENE,65,2.0,2.0,44,0.00,,,0.01,Wunderground v.1.15,2013-02-07 18:49:00,
2013-02-07 13:54:00,44.4,23.3,30.12,SE,124,1.0,2.0,43,0.00,,,0.01,Wunderground v.1.15,2013-02-07 18:54:00,
2013-02-07 13:59:00,44.4,23.3,30.12,ENE,76,2.0,2.0,43,0.00,,,0.02,Wunderground v.1.15,2013-02-07 18:59:00,
2013-02-07 14:00:00,44.4,23.3,30.12,SE,135,2.0,8.0,43,0.00,,---,0.02,VWS V14.01,2013-02-07 19:00:00,
2013-02-07 14:04:00,44.8,23.1,30.12,East,79,2.0,4.0,42,0.00,,,0.02,Wunderground v.1.15,2013-02-07 19:04:00,
2013-02-07 14:10:00,44.8,23.6,30.11,ENE,70,2.0,2.0,43,0.00,,,0.02,Wunderground v.1.15,2013-02-07 19:10:00,
2013-02-07 14:15:00,45.3,24.1,30.11,SSW,211,2.0,4.0,43,0.00,,,0.02,Wunderground v.1.15,2013-02-07 19:15:00,
2013-02-07 14:20:00,45.4,23.6,30.11,ESE,113,2.0,4.0,42,0.00,,,0.03,Wunderground v.1.15,2013-02-07 19:20:00,
2013-02-07 14:26:00,45.6,24.4,30.10,SE,134,2.0,4.0,43,0.00,,,0.03,Wunderground v.1.15,2013-02-07 19:26:00,
2013-02-07 14:30:00,46.1,25.4,30.10,SE,135,1.0,7.0,44,0.00,,---,0.03,VWS V14.01,2013-02-07 19:30:00,
2013-02-07 14:31:00,46.3,25.0,30.10,ESE,104,1.0,1.0,43,0.00,,,0.03,Wunderground v.1.15,2013-02-07 19:31:00,
2013-02-07 14:37:00,46.4,25.1,30.10,SSE,167,1.0,3.0,43,0.00,,,0.03,Wunderground v.1.15,2013-02-07 19:37:00,
2013-02-07 14:42:00,46.1,24.8,30.10,SE,134,2.0,3.0,43,0.00,,,0.04,Wunderground v.1.15,2013-02-07 19:42:00,
2013-02-07 14:45:00,46.1,24.9,30.10,SE,135,2.0,7.0,43,0.00,,---,0.04,VWS V14.01,2013-02-07 19:45:00,
2013-02-07 14:47:00,46.0,24.7,30.10,SE,140,2.0,7.0,43,0.00,,,0.04,Wunderground v.1.15,2013-02-07 19:47:00,
2013-02-07 14:52:00,46.2,24.9,30.10,East,82,2.0,2.0,43,0.00,,,0.04,Wunderground v.1.15,2013-02-07 19:52:00,
2013-02-07 14:58:00,46.3,25.0,30.09,ENE,66,2.0,6.0,43,0.00,,,0.04,Wunderground v.1.15,2013-02-07 19:58:00,
2013-02-07 15:00:00,46.2,25.0,30.09,SE,135,2.0,8.0,43,0.00,,---,0.04,VWS V14.01,2013-02-07 20:00:00,
2013-02-07 15:03:00,46.4,25.1,30.09,ESE,110,1.0,2.0,43,0.00,,,0.04,Wunderground v.1.15,2013-02-07 20:03:00,
2013-02-07 15:09:00,46.6,25.3,30.09,SE,138,2.0,2.0,43,0.00,,,0.05,Wunderground v.1.15,2013-02-07 20:09:00,
2013-02-07 15:14:00,46.5,24.6,30.09,SE,142,2.0,3.0,42,0.00,,,0.05,Wunderground v.1.15,2013-02-07 20:14:00,
2013-02-07 15:15:00,46.5,24.7,30.09,SE,135,1.0,6.0,42,0.00,,---,0.05,VWS V14.01,2013-02-07 20:15:00,
2013-02-07 15:19:00,46.6,25.3,30.09,SE,130,1.0,2.0,43,0.00,,,0.05,Wunderground v.1.15,2013-02-07 20:19:00,
2013-02-07 15:25:00,46.3,25.0,30.08,SE,135,2.0,4.0,43,0.00,,,0.05,Wunderground v.1.15,2013-02-07 20:25:00,
2013-02-07 15:30:00,46.7,25.9,30.08,ESE,113,1.0,1.0,44,0.00,,,0.05,Wunderground v.1.15,2013-02-07 20:30:00,
2013-02-07 15:36:00,46.8,25.5,30.08,West,269,1.0,6.0,43,0.00,,,0.05,Wunderground v.1.15,2013-02-07 20:36:00,
2013-02-07 15:41:00,46.7,24.8,30.08,ESE,115,1.0,3.0,42,0.00,,,0.05,Wunderground v.1.15,2013-02-07 20:41:00,
2013-02-07 15:45:00,46.5,25.2,30.08,ESE,112,1.0,6.0,43,0.00,,---,0.05,VWS V14.01,2013-02-07 20:45:00,
2013-02-07 15:46:00,46.5,25.2,30.08,SW,229,1.0,3.0,43,0.00,,,0.05,Wunderground v.1.15,2013-02-07 20:46:00,
2013-02-07 15:52:00,46.3,25.6,30.08,SE,128,2.0,6.0,44,0.00,,,0.05,Wunderground v.1.15,2013-02-07 20:52:00,
2013-02-07 15:57:00,46.1,25.4,30.07,SE,140,2.0,6.0,44,0.00,,,0.05,Wunderground v.1.15,2013-02-07 20:57:00,
2013-02-07 16:00:00,46.0,25.3,30.07,SE,135,2.0,8.0,44,0.00,,---,0.05,VWS V14.01,2013-02-07 21:00:00,
2013-02-07 16:03:00,46.0,25.3,30.07,SE,131,1.0,2.0,44,0.00,,,0.05,Wunderground v.1.15,2013-02-07 21:03:00,
2013-02-07 16:08:00,45.9,25.2,30.07,SE,136,1.0,5.0,44,0.00,,,0.05,Wunderground v.1.15,2013-02-07 21:08:00,
2013-02-07 16:14:00,45.7,25.5,30.06,SW,231,2.0,6.0,45,0.00,,,0.05,Wunderground v.1.15,2013-02-07 21:14:00,
2013-02-07 16:15:00,45.6,25.5,30.06,SE,135,2.0,8.0,45,0.00,,---,0.05,VWS V14.01,2013-02-07 21:15:00,
2013-02-07 16:19:00,45.5,24.8,30.06,SW,229,2.0,2.0,44,0.00,,,0.06,Wunderground v.1.15,2013-02-07 21:19:00,
2013-02-07 16:25:00,45.5,25.4,30.06,ESE,118,1.0,2.0,45,0.00,,,0.06,Wunderground v.1.15,2013-02-07 21:25:00,
2013-02-07 16:30:00,45.5,25.4,30.06,SE,127,1.0,3.0,45,0.00,,,0.06,Wunderground v.1.15,2013-02-07 21:30:00,
2013-02-07 16:35:00,45.5,25.4,30.05,SE,141,1.0,3.0,45,0.00,,,0.06,Wunderground v.1.15,2013-02-07 21:35:00,
2013-02-07 16:41:00,45.3,25.2,30.05,ESE,119,1.0,2.0,45,0.00,,,0.06,Wunderground v.1.15,2013-02-07 21:41:00,
2013-02-07 16:45:00,45.1,25.0,30.05,SE,135,1.0,4.0,45,0.00,,---,0.06,VWS V14.01,2013-02-07 21:45:00,
2013-02-07 16:46:00,45.0,24.9,30.05,SE,134,1.0,3.0,45,0.00,,,0.06,Wunderground v.1.15,2013-02-07 21:46:00,
2013-02-07 16:51:00,44.7,24.6,30.05,ESE,108,2.0,6.0,45,0.00,,,0.06,Wunderground v.1.15,2013-02-07 21:51:00,
2013-02-07 16:57:00,44.4,25.4,30.05,East,98,2.0,6.0,47,0.00,,,0.06,Wunderground v.1.15,2013-02-07 21:57:00,
2013-02-07 17:00:00,44.3,25.4,30.04,SE,135,2.0,8.0,47,0.00,,---,0.06,VWS V14.01,2013-02-07 22:00:00,
2013-02-07 17:02:00,44.1,25.1,30.04,ENE,78,1.0,2.0,47,0.00,,,0.06,Wunderground v.1.15,2013-02-07 22:02:00,
2013-02-07 17:09:00,44.0,25.0,30.04,East,98,1.0,2.0,47,0.00,,,0.06,Wunderground v.1.15,2013-02-07 22:09:00,
2013-02-07 17:14:00,43.9,24.9,30.03,SE,131,1.0,6.0,47,0.00,,,0.06,Wunderground v.1.15,2013-02-07 22:14:00,
2013-02-07 17:15:00,43.9,25.0,30.03,SE,135,1.0,7.0,47,0.00,,---,0.06,VWS V14.01,2013-02-07 22:15:00,
2013-02-07 17:20:00,43.7,25.3,30.03,SE,143,2.0,2.0,48,0.00,,,0.06,Wunderground v.1.15,2013-02-07 22:20:00,
2013-02-07 17:25:00,43.5,25.6,30.03,ESE,110,1.0,2.0,49,0.00,,,0.06,Wunderground v.1.15,2013-02-07 22:25:00,
2013-02-07 17:30:00,43.1,25.3,30.03,ENE,68,1.0,5.0,49,0.00,,---,0.06,VWS V14.01,2013-02-07 22:30:00,
2013-02-07 17:31:00,43.0,25.1,30.03,East,85,0.0,1.0,49,0.00,,,0.06,Wunderground v.1.15,2013-02-07 22:31:00,
2013-02-07 17:37:00,42.7,25.3,30.02,ESE,110,0.0,1.0,50,0.00,,,0.06,Wunderground v.1.15,2013-02-07 22:37:00,
2013-02-07 17:42:00,42.3,25.0,30.03,East,93,0.0,1.0,50,0.00,,,0.06,Wunderground v.1.15,2013-02-07 22:42:00,
2013-02-07 17:45:00,42.1,25.3,30.02,East,90,0.0,1.0,51,0.00,,---,0.06,VWS V14.01,2013-02-07 22:45:00,
2013-02-07 17:48:00,41.9,25.1,30.03,East,89,0.0,1.0,51,0.00,,,0.06,Wunderground v.1.15,2013-02-07 22:48:00,
2013-02-07 17:54:00,41.7,25.4,30.03,East,98,0.0,1.0,52,0.00,,,0.06,Wunderground v.1.15,2013-02-07 22:54:00,
2013-02-07 17:59:00,41.5,25.2,30.03,SE,134,0.0,1.0,52,0.00,,,0.06,Wunderground v.1.15,2013-02-07 22:59:00,
2013-02-07 18:00:00,41.5,25.7,30.03,SE,135,0.0,4.0,53,0.00,,---,0.06,VWS V14.01,2013-02-07 23:00:00,
2013-02-07 18:04:00,41.2,25.3,30.02,East,84,0.0,2.0,53,0.00,,,0.06,Wunderground v.1.15,2013-02-07 23:04:00,
2013-02-07 18:10:00,41.1,25.7,30.02,SE,132,0.0,0.0,54,0.00,,,0.06,Wunderground v.1.15,2013-02-07 23:10:00,
2013-02-07 18:15:00,41.0,25.6,30.02,ESE,103,0.0,2.0,54,0.00,,,0.06,Wunderground v.1.15,2013-02-07 23:15:00,
2013-02-07 18:21:00,41.1,25.7,30.02,East,101,1.0,1.0,54,0.00,,,0.06,Wunderground v.1.15,2013-02-07 23:21:00,
2013-02-07 18:27:00,40.9,26.0,30.02,SE,135,0.0,1.0,55,0.00,,,0.06,Wunderground v.1.15,2013-02-07 23:27:00,
2013-02-07 18:30:00,40.8,25.9,30.02,East,90,0.0,3.0,55,0.00,,---,0.06,VWS V14.01,2013-02-07 23:30:00,
2013-02-07 18:32:00,40.7,25.8,30.02,SE,136,0.0,2.0,55,0.00,,,0.06,Wunderground v.1.15,2013-02-07 23:32:00,
2013-02-07 18:39:00,40.5,26.0,30.02,East,84,0.0,2.0,56,0.00,,,0.06,Wunderground v.1.15,2013-02-07 23:39:00,
2013-02-07 18:44:00,40.3,25.8,30.02,SE,138,0.0,1.0,56,0.00,,,0.06,Wunderground v.1.15,2013-02-07 23:44:00,
2013-02-07 18:45:00,40.3,26.3,30.02,ENE,68,0.0,3.0,57,0.00,,---,0.06,VWS V14.01,2013-02-07 23:45:00,
2013-02-07 18:50:00,40.0,26.0,30.02,SE,126,0.0,0.0,57,0.00,,,0.06,Wunderground v.1.15,2013-02-07 23:50:00,
2013-02-07 18:55:00,40.0,26.0,30.01,SE,126,0.0,0.0,57,0.00,,,0.06,Wunderground v.1.15,2013-02-07 23:55:00,
2013-02-07 19:00:00,39.9,26.3,30.01,ENE,68,0.0,4.0,58,0.00,,---,0.06,VWS V14.01,2013-02-08 00:00:00,
2013-02-07 19:01:00,39.9,25.9,30.01,ESE,120,0.0,0.0,57,0.00,,,0.06,Wunderground v.1.15,2013-02-08 00:01:00,
2013-02-07 19:06:00,39.8,26.2,30.00,SE,139,1.0,4.0,58,0.00,,,0.06,Wunderground v.1.15,2013-02-08 00:06:00,
2013-02-07 19:11:00,39.9,26.3,30.00,NE,46,2.0,6.0,58,0.00,,,0.06,Wunderground v.1.15,2013-02-08 00:11:00,
2013-02-07 19:15:00,39.8,26.2,30.00,SE,135,2.0,6.0,58,0.00,,---,0.06,VWS V14.01,2013-02-08 00:15:00,
2013-02-07 19:17:00,39.8,26.2,30.00,SSE,148,2.0,6.0,58,0.00,,,0.06,Wunderground v.1.15,2013-02-08 00:17:00,
2013-02-07 19:22:00,39.6,26.0,30.00,SE,129,1.0,4.0,58,0.00,,,0.06,Wunderground v.1.15,2013-02-08 00:22:00,
2013-02-07 19:27:00,39.7,26.1,30.00,SE,145,1.0,4.0,58,0.00,,,0.06,Wunderground v.1.15,2013-02-08 00:27:00,
2013-02-07 19:30:00,39.7,26.1,30.00,SE,135,1.0,6.0,58,0.00,,---,0.06,VWS V14.01,2013-02-08 00:30:00,
2013-02-07 19:34:00,39.7,26.1,30.00,ESE,108,2.0,5.0,58,0.00,,,0.06,Wunderground v.1.15,2013-02-08 00:34:00,
2013-02-07 19:39:00,40.0,26.4,30.00,South,171,3.0,3.0,58,0.00,,,0.06,Wunderground v.1.15,2013-02-08 00:39:00,
2013-02-07 19:45:00,39.8,26.6,30.00,East,96,2.0,7.0,59,0.00,,,0.06,Wunderground v.1.15,2013-02-08 00:45:00,
2013-02-07 19:50:00,39.8,26.2,29.99,SE,136,2.0,6.0,58,0.00,,,0.06,Wunderground v.1.15,2013-02-08 00:50:00,
2013-02-07 19:56:00,39.9,26.3,29.99,SSE,152,3.0,6.0,58,0.00,,,0.06,Wunderground v.1.15,2013-02-08 00:56:00,
2013-02-07 20:00:00,39.8,26.7,29.99,SE,135,2.0,9.0,59,0.00,,---,0.06,VWS V14.01,2013-02-08 01:00:00,
2013-02-07 20:02:00,39.7,26.5,29.98,ESE,111,2.0,2.0,59,0.00,,,0.06,Wunderground v.1.15,2013-02-08 01:02:00,
2013-02-07 20:08:00,39.6,26.4,29.98,SE,136,2.0,5.0,59,0.00,,,0.06,Wunderground v.1.15,2013-02-08 01:08:00,
2013-02-07 20:13:00,39.6,26.4,29.97,East,97,2.0,4.0,59,0.00,,,0.06,Wunderground v.1.15,2013-02-08 01:13:00,
2013-02-07 20:15:00,39.5,26.4,29.97,SE,135,2.0,8.0,59,0.00,,---,0.06,VWS V14.01,2013-02-08 01:15:00,
2013-02-07 20:19:00,39.5,26.8,29.97,South,184,2.0,5.0,60,0.00,,,0.06,Wunderground v.1.15,2013-02-08 01:19:00,
2013-02-07 20:24:00,39.4,26.7,29.96,East,80,3.0,5.0,60,0.00,,,0.06,Wunderground v.1.15,2013-02-08 01:24:00,
2013-02-07 20:30:00,39.3,26.6,29.97,SSE,162,3.0,3.0,60,0.00,,,0.06,Wunderground v.1.15,2013-02-08 01:30:00,
2013-02-07 20:35:00,39.2,26.5,29.96,WNW,297,3.0,7.0,60,0.00,,,0.06,Wunderground v.1.15,2013-02-08 01:35:00,
2013-02-07 20:40:00,39.2,26.5,29.96,SW,217,3.0,3.0,60,0.00,,,0.06,Wunderground v.1.15,2013-02-08 01:40:00,
2013-02-07 20:45:00,39.1,26.8,29.96,SE,129,3.0,3.0,61,0.00,,,0.06,Wunderground v.1.15,2013-02-08 01:45:00,
2013-02-07 20:51:00,38.9,26.6,29.95,WSW,245,3.0,5.0,61,0.00,,,0.06,Wunderground v.1.15,2013-02-08 01:51:00,
2013-02-07 20:56:00,38.8,26.9,29.95,NW,323,3.0,5.0,62,0.00,,,0.06,Wunderground v.1.15,2013-02-08 01:56:00,
2013-02-07 21:00:00,38.8,26.5,29.94,SE,135,4.0,16.0,61,0.00,,---,0.06,VWS V14.01,2013-02-08 02:00:00,
2013-02-07 21:02:00,38.8,26.5,29.95,SE,127,4.0,9.0,61,0.00,,,0.06,Wunderground v.1.15,2013-02-08 02:02:00,
2013-02-07 21:07:00,38.7,26.8,29.94,ESE,115,4.0,9.0,62,0.00,,,0.06,Wunderground v.1.15,2013-02-08 02:07:00,
2013-02-07 21:12:00,38.6,26.7,29.94,SE,143,3.0,12.0,62,0.00,,,0.06,Wunderground v.1.15,2013-02-08 02:12:00,
2013-02-07 21:15:00,38.6,26.7,29.94,SE,135,3.0,16.0,62,0.00,,---,0.06,VWS V14.01,2013-02-08 02:15:00,
2013-02-07 21:18:00,38.7,26.8,29.94,SE,139,4.0,12.0,62,0.00,,,0.06,Wunderground v.1.15,2013-02-08 02:18:00,
2013-02-07 21:23:00,38.6,26.7,29.94,NNE,13,5.0,7.0,62,0.00,,,0.06,Wunderground v.1.15,2013-02-08 02:23:00,
2013-02-07 21:29:00,38.5,26.6,29.94,SE,143,4.0,7.0,62,0.00,,,0.06,Wunderground v.1.15,2013-02-08 02:29:00,
2013-02-07 21:30:00,38.5,26.6,29.94,SE,135,5.0,15.0,62,0.00,,---,0.06,VWS V14.01,2013-02-08 02:30:00,
2013-02-07 21:34:00,38.5,26.6,29.94,SE,143,5.0,11.0,62,0.00,,,0.06,Wunderground v.1.15,2013-02-08 02:34:00,
2013-02-07 21:39:00,38.4,26.9,29.93,ESE,120,5.0,5.0,63,0.00,,,0.06,Wunderground v.1.15,2013-02-08 02:39:00,
2013-02-07 21:45:00,38.3,26.8,29.93,SE,137,4.0,10.0,63,0.00,,,0.06,Wunderground v.1.15,2013-02-08 02:45:00,
2013-02-07 21:50:00,38.2,26.7,29.92,SE,126,5.0,5.0,63,0.00,,,0.06,Wunderground v.1.15,2013-02-08 02:50:00,
2013-02-07 21:56:00,38.1,27.0,29.92,SSE,159,4.0,6.0,64,0.00,,,0.06,Wunderground v.1.15,2013-02-08 02:56:00,
2013-02-07 22:00:00,38.0,26.9,29.92,SE,135,4.0,13.0,64,0.00,,---,0.06,VWS V14.01,2013-02-08 03:00:00,
2013-02-07 22:01:00,38.0,26.9,29.92,SE,129,4.0,5.0,64,0.00,,,0.06,Wunderground v.1.15,2013-02-08 03:01:00,
2013-02-07 22:07:00,38.0,26.9,29.92,West,269,4.0,7.0,64,0.00,,,0.06,Wunderground v.1.15,2013-02-08 03:07:00,
2013-02-07 22:12:00,38.1,27.0,29.92,SE,145,5.0,5.0,64,0.00,,,0.06,Wunderground v.1.15,2013-02-08 03:12:00,
2013-02-07 22:15:00,38.0,26.9,29.92,SE,135,5.0,14.0,64,0.00,,---,0.06,VWS V14.01,2013-02-08 03:15:00,
2013-02-07 22:17:00,38.0,26.9,29.91,South,176,5.0,8.0,64,0.00,,,0.06,Wunderground v.1.15,2013-02-08 03:17:00,
2013-02-07 22:23:00,37.9,26.8,29.92,ESE,108,4.0,7.0,64,0.00,,,0.06,Wunderground v.1.15,2013-02-08 03:23:00,
2013-02-07 22:29:00,37.8,27.1,29.91,ESE,123,3.0,7.0,65,0.00,,,0.06,Wunderground v.1.15,2013-02-08 03:29:00,
2013-02-07 22:30:00,37.7,27.0,29.91,SE,135,4.0,10.0,65,0.00,,---,0.06,VWS V14.01,2013-02-08 03:30:00,
2013-02-07 22:34:00,37.8,27.1,29.91,SE,136,4.0,6.0,65,0.00,,,0.06,Wunderground v.1.15,2013-02-08 03:34:00,
2013-02-07 22:39:00,37.8,27.1,29.91,ESE,120,5.0,7.0,65,0.00,,,0.06,Wunderground v.1.15,2013-02-08 03:39:00,
2013-02-07 22:44:00,37.7,27.0,29.90,ESE,105,6.0,12.0,65,0.00,,,0.06,Wunderground v.1.15,2013-02-08 03:44:00,
2013-02-07 22:45:00,37.7,27.0,29.90,SE,135,5.0,17.0,65,0.00,,---,0.06,VWS V14.01,2013-02-08 03:45:00,
2013-02-07 22:50:00,37.5,27.2,29.90,ESE,104,4.0,5.0,66,0.00,,,0.06,Wunderground v.1.15,2013-02-08 03:50:00,
2013-02-07 22:55:00,37.4,27.1,29.90,ENE,63,4.0,5.0,66,0.00,,,0.06,Wunderground v.1.15,2013-02-08 03:55:00,
2013-02-07 23:00:00,37.4,27.1,29.90,SSE,153,4.0,4.0,66,0.00,,,0.06,Wunderground v.1.15,2013-02-08 04:00:00,
2013-02-07 23:06:00,37.3,27.3,29.89,NE,53,4.0,5.0,67,0.00,,,0.06,Wunderground v.1.15,2013-02-08 04:06:00,
2013-02-07 23:11:00,37.4,27.4,29.89,SE,137,5.0,5.0,67,0.00,,,0.06,Wunderground v.1.15,2013-02-08 04:11:00,
2013-02-07 23:15:00,37.4,27.5,29.89,SE,135,4.0,15.0,67,0.00,,---,0.06,VWS V14.01,2013-02-08 04:15:00,
2013-02-07 23:17:00,37.5,27.5,29.88,WSW,239,5.0,7.0,67,0.00,,,0.06,Wunderground v.1.15,2013-02-08 04:17:00,
2013-02-07 23:23:00,37.5,27.5,29.88,SE,139,4.0,5.0,67,0.00,,,0.06,Wunderground v.1.15,2013-02-08 04:23:00,
2013-02-07 23:28:00,37.5,27.9,29.88,ESE,122,4.0,7.0,68,0.00,,,0.06,Wunderground v.1.15,2013-02-08 04:28:00,
2013-02-07 23:30:00,37.5,27.5,29.87,SE,135,4.0,16.0,67,0.00,,---,0.06,VWS V14.01,2013-02-08 04:30:00,
2013-02-07 23:34:00,37.5,27.9,29.87,SE,127,4.0,6.0,68,0.00,,,0.06,Wunderground v.1.15,2013-02-08 04:34:00,
2013-02-07 23:39:00,37.4,27.8,29.87,ESE,108,4.0,4.0,68,0.00,,,0.06,Wunderground v.1.15,2013-02-08 04:39:00,
2013-02-07 23:45:00,37.5,27.9,29.87,East,86,4.0,8.0,68,0.00,,,0.06,Wunderground v.1.15,2013-02-08 04:45:00,
2013-02-07 23:51:00,37.6,28.0,29.86,ESE,117,4.0,9.0,68,0.00,,,0.06,Wunderground v.1.15,2013-02-08 04:51:00,
2013-02-07 23:56:00,37.6,28.0,29.86,South,169,4.0,9.0,68,0.00,,,0.06,Wunderground v.1.15,2013-02-08 04:56:00,